sat.trackr.live / text

‹ back to catalog

STARLINK-5531

NORAD 55383 · 2023-013BE

PAYLOAD ACTIVE UNKNOWN

§ Identity

Operator
Country
US
Launch date
2023-01-26
Launch site
AFETR
Launch vehicle
Mass (kg)
RCS (m²)

Purposes: comms

External: N2YO · Heavens-Above · Gunter

§ Orbital elements

Epoch: 2026-05-24T16:09:16.780896Z

Period
94.27 min
Inclination
43.0044°
Eccentricity
0.0002458
Mean motion
15.27577462 rev/d
Perigee alt
481.4 km
Apogee alt
484.7 km
Semi-major
6,861.2 km
B*
2.5554e-5
RAAN
219.6048°
Arg perigee
286.2787°
Mean anomaly
73.7795°
Rev number
18,346

§ Raw data

STARLINK-55311 55383U 23013BE  26144.67311089  .00000441  00000+0  25554-4 0  99982 55383  43.0044 219.6048 0002458 286.2787  73.7795 15.27577462183466

JSON: /api/v1/satellites/55383 · /tle

For live sub-satellite position, see the globe view (requires WebGL).

§ Visibility from observer

Set your observer location to see the next 7 days of passes ≥ 10°. The values pass through the URL so the page stays shareable.

No JS? Fill the form by hand. The geolocation button needs JavaScript.